Regional Weather Roundup
Issued by NWS

Home | Current Version | Previous Version | Text Only | Print | Product List | Glossary Off
Versions: 1 2 3 4 5 6 7 8 9 10 11 12 13 14 15 16 17 18 19 20 21 22 23 24 25 26 27 28 29 30 31 32 33 34 35 36 37 38 39 40 41 42 43 44 45 46 47 48 49 50

000
ASUS43 KLMK 051602
RWRKY
KENTUCKY REGIONAL WEATHER ROUNDUP
NATIONAL WEATHER SERVICE LOUISVILLE KY
1200 PM EDT TUE MAY 05 2015

NOTE "FAIR" INDICATES FEW OR NO CLOUDS BELOW 12,000 FEET
WITH NO SIGNIFICANT WEATHER AND/OR OBSTRUCTIONS TO VISIBILITY.

KYZ001>023-026-027-061>063-070>075-051700-
WESTERN AND SOUTH CENTRAL KENTUCKY

CITY           SKY/WX    TMP DP  RH WIND       PRES   REMARKS
PADUCAH        SUNNY     82  55  39 SW8       30.23S
HENDERSON      SUNNY     82  54  36 SW17      30.25S
OWENSBORO      SUNNY     81  59  47 SW10      30.27S
HOPKINSVILLE   SUNNY     80  58  46 SW13      30.27S
BOWLING GREEN  SUNNY     79  58  48 W9        30.30S
GLASGOW        NOT AVBL
$$

KYZ024-025-028>034-038-045-046-053-051700-
NORTH CENTRAL KENTUCKY

CITY           SKY/WX    TMP DP  RH WIND       PRES   REMARKS
LOUISVILLE/SDF MOSUNNY   81  55  40 W13G20    30.28R
LOUISVILLE/LOU SUNNY     80  56  43 W9        30.28S
FORT KNOX      PTSUNNY   80  56  43 SW10G18   30.27S
$$

KYZ035>037-039>044-047>052-055>060-089>105-051700-
NORTHEAST KENTUCKY

CITY           SKY/WX    TMP DP  RH WIND       PRES   REMARKS
LEXINGTON      SUNNY     78  57  48 MISG      30.31S
COVINGTON      MOSUNNY   79  56  45 W9        30.27F
FRANKFORT      SUNNY     79  54  41 SW10      30.29R
$$

KYZ054-064>069-076>088-106>120-051700-
SOUTHEAST KENTUCKY

CITY           SKY/WX    TMP DP  RH WIND       PRES   REMARKS
JACKSON        SUNNY     78  54  43 VRB5      30.34F
LONDON         SUNNY     78  49  35 W5        30.34S
SOMERSET       NOT AVBL
MIDDLESBORO    NOT AVBL
MONTICELLO     SUNNY     81  53  37 W6        30.35F
$$




USA.gov is the U.S. government's official web portal to all federal, state and local government web resources and services.